{"data":{"norad_id":60061,"intl_designator":"2024-113C","name":"STARLINK-11167 [DTC]","alt_names":[],"object_type":"PAYLOAD","status":"ACTIVE","operator":null,"country":"US","launch_date":"2024-06-19","launch_site_code":"AFWTR","launch_vehicle":null,"mission":null,"orbit_class":"UNKNOWN","rcs_meters":null,"size_class":null,"mass_kg":null,"dimensions":null,"purposes":["comms"],"wikipedia_slug":null,"has_3d_model":false,"image_url":null,"decayed_at":null,"tle_current":{"epoch":"2026-09-21T02:35:25.605600Z","epoch_age_seconds":125164,"freshness":"FRESH","line1":"1 60061U 24113C   26264.10793525  .00002176  00000+0  22811-4 0  9999","line2":"2 60061  53.1607 307.8859 0001227 100.8037 259.3119 15.69718637130555","mean_motion":15.69718637,"eccentricity":0.0001227,"inclination_deg":53.1607,"raan_deg":307.8859,"arg_perigee_deg":100.8037,"mean_anomaly_deg":259.3119,"bstar":2.2811e-5,"rev_number":13055,"period_min":91.736185457547,"perigee_km":358.87530189561,"apogee_km":360.52876759474,"semimajor_km":6737.8390347452,"source":"CELESTRAK","updated_at":"2026-09-22T09:00:49.146380Z"}}}